When you browse on this site, cookies collect data to enhance your experience and personalize the content and advertising you see.
Visit our Privacy Policy to learn more. By continuing to use the site, you agree to this use of cookies and data.
  • In Hungary
  • List of Countries
  • For 7 days
  • Water Temperature
  • Weather Map
  • News
  • Weather Widgets
  • user-avatar
    Login

    Hourly Weather Radzowice

    Today, 14 December, Saturday

    Time Temperature Precipitation Wind Pressure Humidity
    00:00 0°C° 0 mm 5 mps 726 mmHg 81%
    01:00 -1°C° 0 mm 6 mps 727 mmHg 82%
    02:00 -1°C° 0 mm 6 mps 727 mmHg 80%
    03:00 -1°C° 0 mm 6 mps 727 mmHg 78%
    04:00 +1°C° 0 mm 6 mps 727 mmHg 76%
    05:00 +1°C° 0 mm 6 mps 727 mmHg 76%
    06:00 +1°C° 0 mm 6 mps 728 mmHg 76%
    07:00 +1°C° 0 mm 6 mps 728 mmHg 77%
    08:00 +2°C° 0 mm 6 mps 728 mmHg 76%
    09:00 +2°C° 0 mm 6 mps 729 mmHg 76%
    10:00 +3°C° 0 mm 6 mps 729 mmHg 75%
    11:00 +3°C° 0.1 mm 6 mps 729 mmHg 73%
    12:00 +3°C° 0.1 mm 7 mps 729 mmHg 70%
    13:00 +3°C° 0.1 mm 7 mps 728 mmHg 68%
    14:00 +2°C° 0.4 mm 8 mps 729 mmHg 72%
    15:00 +2°C° 0.4 mm 8 mps 729 mmHg 76%
    16:00 +2°C° 0.4 mm 9 mps 729 mmHg 80%
    17:00 +2°C° 0 mm 8 mps 731 mmHg 80%
    18:00 +2°C° 0 mm 8 mps 732 mmHg 80%
    19:00 +2°C° 0 mm 7 mps 733 mmHg 80%
    20:00 +2°C° 0 mm 6 mps 734 mmHg 78%
    21:00 +1°C° 0 mm 5 mps 735 mmHg 75%
    22:00 +1°C° 0 mm 5 mps 736 mmHg 72%
    23:00 +1°C° 0 mm 4 mps 736 mmHg 75%

    Tomorrow, 15 December, Sunday

    Time Temperature Precipitation Wind Pressure Humidity
    00:00 +1°C° 0 mm 4 mps 737 mmHg 78%
    01:00 +1°C° 0 mm 4 mps 737 mmHg 81%
    02:00 +1°C° 0 mm 4 mps 737 mmHg 81%
    03:00 +1°C° 0 mm 5 mps 738 mmHg 81%
    04:00 +2°C° 0 mm 5 mps 738 mmHg 82%
    05:00 +1°C° 0 mm 5 mps 738 mmHg 83%
    06:00 +1°C° 0 mm 5 mps 738 mmHg 84%
    07:00 +1°C° 0 mm 5 mps 738 mmHg 85%
    08:00 +2°C° 0.1 mm 5 mps 738 mmHg 83%
    09:00 +3°C° 0.1 mm 6 mps 738 mmHg 82%
    10:00 +4°C° 0.1 mm 6 mps 738 mmHg 80%
    11:00 +5°C° 0.4 mm 7 mps 737 mmHg 76%
    12:00 +6°C° 0.4 mm 8 mps 737 mmHg 72%
    13:00 +9°C° 0.4 mm 8 mps 737 mmHg 68%
    14:00 +7°C° 0.1 mm 8 mps 738 mmHg 71%
    15:00 +8°C° 0.1 mm 7 mps 739 mmHg 74%
    16:00 +8°C° 0.1 mm 6 mps 739 mmHg 77%
    17:00 +7°C° 0.2 mm 5 mps 740 mmHg 76%
    18:00 +7°C° 0.2 mm 4 mps 741 mmHg 75%
    19:00 +7°C° 0.2 mm 3 mps 742 mmHg 75%
    20:00 +5°C° 0 mm 3 mps 743 mmHg 77%
    21:00 +5°C° 0 mm 3 mps 744 mmHg 80%
    22:00 +5°C° 0 mm 2 mps 744 mmHg 82%
    23:00 +5°C° 0 mm 2 mps 745 mmHg 84%

    Day after tomorrow, 16 December, Monday

    Time Temperature Precipitation Wind Pressure Humidity
    00:00 +5°C° 0 mm 2 mps 745 mmHg 85%
    01:00 +3°C° 0 mm 3 mps 745 mmHg 86%
    02:00 +3°C° 0 mm 3 mps 745 mmHg 86%
    03:00 +3°C° 0 mm 3 mps 745 mmHg 86%
    04:00 +3°C° 0 mm 3 mps 745 mmHg 86%
    05:00 +3°C° 0 mm 3 mps 745 mmHg 85%
    06:00 +4°C° 0 mm 3 mps 745 mmHg 85%
    07:00 +4°C° 0 mm 3 mps 745 mmHg 85%
    08:00 +4°C° 0 mm 3 mps 745 mmHg 82%
    09:00 +5°C° 0 mm 3 mps 745 mmHg 79%
    10:00 +7°C° 0 mm 3 mps 745 mmHg 77%
    11:00 +7°C° 0 mm 3 mps 745 mmHg 75%
    12:00 +8°C° 0 mm 3 mps 745 mmHg 73%
    13:00 +9°C° 0 mm 3 mps 745 mmHg 72%
    14:00 +8°C° 0 mm 3 mps 744 mmHg 75%
    15:00 +7°C° 0 mm 3 mps 744 mmHg 78%
    16:00 +7°C° 0 mm 3 mps 744 mmHg 82%
    17:00 +5°C° 0 mm 3 mps 744 mmHg 84%
    18:00 +5°C° 0 mm 3 mps 744 mmHg 86%
    19:00 +5°C° 0 mm 3 mps 744 mmHg 87%
    20:00 +5°C° 0 mm 3 mps 744 mmHg 88%
    21:00 +5°C° 0 mm 3 mps 744 mmHg 88%
    22:00 +4°C° 0 mm 3 mps 743 mmHg 89%
    23:00 +5°C° 0 mm 3 mps 743 mmHg 89%

    17 December, Tuesday

    Time Temperature Precipitation Wind Pressure Humidity
    00:00 +5°C° 0 mm 3 mps 743 mmHg 89%
    01:00 +5°C° 0 mm 4 mps 743 mmHg 89%
    02:00 +5°C° 0 mm 4 mps 742 mmHg 89%
    03:00 +5°C° 0 mm 4 mps 742 mmHg 89%
    04:00 +5°C° 0 mm 4 mps 742 mmHg 89%
    05:00 +4°C° 0 mm 3 mps 742 mmHg 89%
    06:00 +4°C° 0 mm 3 mps 742 mmHg 90%
    07:00 +4°C° 0 mm 3 mps 741 mmHg 90%
    08:00 +5°C° 0 mm 3 mps 742 mmHg 89%
    09:00 +5°C° 0 mm 3 mps 742 mmHg 88%
    10:00 +5°C° 0 mm 3 mps 742 mmHg 88%
    11:00 +7°C° 0 mm 3 mps 742 mmHg 84%
    12:00 +8°C° 0 mm 3 mps 741 mmHg 81%
    13:00 +8°C° 0 mm 3 mps 741 mmHg 78%
    14:00 +8°C° 0 mm 3 mps 741 mmHg 81%
    15:00 +7°C° 0 mm 2 mps 741 mmHg 85%
    16:00 +7°C° 0 mm 2 mps 741 mmHg 88%
    17:00 +6°C° 0 mm 2 mps 741 mmHg 88%
    18:00 +6°C° 0 mm 2 mps 741 mmHg 89%
    19:00 +7°C° 0 mm 1 mps 741 mmHg 89%
    20:00 +6°C° 0 mm 2 mps 741 mmHg 90%
    21:00 +6°C° 0 mm 2 mps 742 mmHg 90%
    22:00 +6°C° 0 mm 2 mps 742 mmHg 90%
    23:00 +6°C° 0 mm 2 mps 742 mmHg 90%

    18 December, Wednesday

    Time Temperature Precipitation Wind Pressure Humidity
    00:00 +5°C° 0 mm 2 mps 742 mmHg 90%
    01:00 +5°C° 0 mm 2 mps 742 mmHg 90%
    02:00 +5°C° 0 mm 2 mps 742 mmHg 90%
    03:00 +5°C° 0 mm 2 mps 742 mmHg 89%
    04:00 +5°C° 0 mm 2 mps 742 mmHg 89%
    05:00 +5°C° 0 mm 2 mps 742 mmHg 89%
    06:00 +5°C° 0 mm 2 mps 742 mmHg 89%
    07:00 +5°C° 0 mm 2 mps 743 mmHg 89%
    08:00 +5°C° 0 mm 2 mps 743 mmHg 87%
    09:00 +6°C° 0 mm 2 mps 743 mmHg 86%
    10:00 +6°C° 0 mm 2 mps 744 mmHg 84%
    11:00 +7°C° 0 mm 3 mps 744 mmHg 79%
    12:00 +8°C° 0 mm 3 mps 744 mmHg 74%
    13:00 +9°C° 0 mm 3 mps 744 mmHg 69%
    14:00 +8°C° 0 mm 3 mps 744 mmHg 74%
    15:00 +7°C° 0 mm 2 mps 745 mmHg 80%
    16:00 +6°C° 0 mm 2 mps 745 mmHg 85%
    17:00 +7°C° 0 mm 1 mps 745 mmHg 87%
    18:00 +6°C° 0 mm 1 mps 745 mmHg 88%
    19:00 +6°C° 0 mm 1 mps 745 mmHg 90%
    20:00 +6°C° 0 mm 1 mps 745 mmHg 90%
    21:00 +6°C° 0 mm 1 mps 745 mmHg 90%
    22:00 +5°C° 0 mm 0 mps 745 mmHg 90%
    23:00 +6°C° 0 mm 1 mps 745 mmHg 90%

    19 December, Thursday

    Time Temperature Precipitation Wind Pressure Humidity
    00:00 +6°C° 0 mm 1 mps 745 mmHg 89%
    01:00 +6°C° 0 mm 1 mps 744 mmHg 89%
    02:00 +6°C° 0 mm 1 mps 744 mmHg 89%
    03:00 +5°C° 0 mm 2 mps 744 mmHg 89%
    04:00 +6°C° 0 mm 2 mps 744 mmHg 89%
    05:00 +6°C° 0 mm 2 mps 744 mmHg 90%
    06:00 +6°C° 0 mm 1 mps 744 mmHg 90%
    07:00 +6°C° 0 mm 1 mps 744 mmHg 91%
    08:00 +7°C° 0 mm 1 mps 744 mmHg 90%
    09:00 +7°C° 0 mm 1 mps 744 mmHg 89%
    10:00 +6°C° 0 mm 2 mps 744 mmHg 89%
    11:00 +6°C° 0 mm 2 mps 744 mmHg 87%
    12:00 +7°C° 0 mm 2 mps 744 mmHg 86%
    13:00 +7°C° 0 mm 3 mps 743 mmHg 84%
    14:00 +7°C° 0 mm 3 mps 743 mmHg 86%
    15:00 +7°C° 0 mm 3 mps 743 mmHg 87%
    16:00 +5°C° 0 mm 3 mps 743 mmHg 88%
    17:00 +5°C° 0.5 mm 4 mps 743 mmHg 89%
    18:00 +5°C° 0.5 mm 4 mps 743 mmHg 91%
    19:00 +5°C° 0.5 mm 4 mps 743 mmHg 92%
    20:00 +5°C° 0.7 mm 5 mps 742 mmHg 92%
    21:00 +5°C° 0.7 mm 5 mps 742 mmHg 92%
    22:00 +6°C° 0.7 mm 5 mps 742 mmHg 92%
    23:00 +6°C° 0.4 mm 5 mps 742 mmHg 92%
    Show more